This demonstration page uses our WeatherBlox Daily Observations layout. Learn more.

Left ArrowRight Arrow

Hourly Observations for June 3, 2016

Temp ( °F °C ) Dew Point ( °F °C ) Humidity (%) Winds ( mph kmh ) Pressure ( in mb ) Visibility ( mi km ) Precip ( " mm )
12:53 am 00:53 Clear 73 22.8 49 9.4 43 43 N 5 7 29.96 1015 10 16 0.00 0.00
1:53 am 01:53 Clear 71 21.7 50 10 47 47 NW 5 7 29.97 1015 10 16 0.00 0.00
2:53 am 02:53 Clear 68 20 50 10 53 53 NW 5 7 29.96 1015 10 16 0.00 0.00
3:53 am 03:53 Clear 70 21.1 50 10 49 49 NW 5 7 29.96 1015 10 16 0.00 0.00
4:53 am 04:53 Clear 71 21.7 50 10 47 47 NNW 6 9 29.96 1015 10 16 0.00 0.00
5:53 am 05:53 Sunny 72 22.2 50 10 46 46 VRB 5 7 29.97 1015 10 16 0.00 0.00
6:53 am 06:53 Sunny 74 23.3 52 11.1 46 46 NNW 5 7 29.98 1015 10 16 0.00 0.00
7:53 am 07:53 Sunny 80 26.7 53 11.7 39 39 NNW 7 11 29.99 1016 10 16 0.00 0.00
8:53 am 08:53 Sunny 85 29.4 51 10.6 31 31 N 12 19 29.98 1015 10 16 0.00 0.00
9:53 am 09:53 Sunny 88 31.1 51 10.6 28 28 N 12 19 29.98 1015 10 16 0.00 0.00
10:53 am 10:53 Sunny 92 33.3 51 10.6 25 25 NNW 8 13 29.96 1015 10 16 0.00 0.00
11:53 am 11:53 Sunny 94 34.4 51 10.6 23 23 NW 8 13 29.94 1014 10 16 0.00 0.00
12:53 pm 12:53 Sunny 98 36.7 47 8.3 17 17 NNE 12 19 29.93 1014 10 16 0.00 0.00
1:53 pm 13:53 Sunny 100 37.8 38 3.3 12 12 N 8 13 29.91 1013 10 16 0.00 0.00
2:53 pm 14:53 Sunny 103 39.4 38 3.3 11 11 N 8 13 29.89 1012 10 16 0.00 0.00
3:53 pm 15:53 Sunny 103 39.4 37 2.8 10 10 N 5 7 29.87 1012 10 16 0.00 0.00
4:53 pm 16:53 Sunny 103 39.4 32 0 8 8 Calm 29.85 1011 10 16 0.00 0.00
5:53 pm 17:53 Sunny 105 40.6 31 -0.6 7 7 Calm 29.84 1010 10 16 0.00 0.00
6:53 pm 18:53 Sunny 102 38.9 35 1.7 10 10 W 5 7 29.83 1010 10 16 0.00 0.00
7:53 pm 19:53 Sunny 94 34.4 50 10 22 22 WNW 3 6 29.83 1010 10 16 0.00 0.00
8:53 pm 20:53 Clear 84 28.9 50 10 31 31 NW 5 7 29.83 1010 10 16 0.00 0.00
9:53 pm 21:53 Clear 85 29.4 48 8.9 28 28 NNW 7 11 29.85 1011 10 16 0.00 0.00
10:53 pm 22:53 Clear 82 27.8 48 8.9 31 31 N 6 9 29.86 1011 10 16 0.00 0.00
11:53 pm 23:53 Clear 77 25 49 9.4 37 37 NNE 5 7 29.86 1011 10 16 0.00 0.00

Powered by AerisWeather